| time (UTC) | temp F | wind direction | speed MPH | gust MPH | rain 1hr in | rain 24hr in | rain mn in | humidity % | barometer mb |
| 20260507195938 | 55 | 0 | 0.0 | 0.0 | 0.00 | 0.00 | 0.00 | 78 | 1015.6 |
| 20260507194938 | 55 | 0 | 0.0 | 0.0 | 0.00 | 0.00 | 0.00 | 77 | 1015.6 |
| 20260507193938 | 56 | 0 | 0.0 | 0.0 | 0.00 | 0.00 | 0.00 | 76 | 1015.6 |
| 20260507191938 | 57 | 0 | 0.0 | 0.0 | 0.00 | 0.00 | 0.00 | 74 | 1015.5 |
| 20260507185938 | 58 | 17 | 0.0 | 2.0 | 0.00 | 0.00 | 0.00 | 69 | 1015.5 |
| 20260507184938 | 58 | 17 | 1.0 | 3.0 | 0.00 | 0.00 | 0.00 | 68 | 1015.5 |
| 20260507183938 | 58 | 19 | 1.0 | 3.0 | 0.00 | 0.00 | 0.00 | 68 | 1015.5 |
| 20260507180938 | 59 | 14 | 1.0 | 3.0 | 0.00 | 0.00 | 0.00 | 66 | 1015.4 |
| 20260507175938 | 59 | 359 | 2.0 | 3.0 | 0.00 | 0.00 | 0.00 | 67 | 1015.4 |
| 20260507174938 | 59 | 281 | 2.0 | 3.0 | 0.00 | 0.00 | 0.00 | 67 | 1015.4 |
| 20260507173939 | 59 | 281 | 2.0 | 3.0 | 0.00 | 0.00 | 0.00 | 67 | 1015.3 |
| 20260507172938 | 59 | 283 | 2.0 | 4.0 | 0.00 | 0.00 | 0.00 | 66 | 1015.3 |
| 20260507165940 | 60 | 318 | 3.0 | 5.0 | 0.00 | 0.00 | 0.00 | 61 | 1015.2 |
| 20260507163939 | 60 | 65 | 2.0 | 5.0 | 0.00 | 0.00 | 0.00 | 58 | 1015.1 |
| 20260507162938 | 60 | 70 | 2.0 | 4.0 | 0.00 | 0.00 | 0.00 | 59 | 1015.2 |
| 20260507160939 | 60 | 67 | 2.0 | 5.0 | 0.00 | 0.00 | 0.00 | 57 | 1015.2 |
| 20260507155938 | 60 | 60 | 3.0 | 7.0 | 0.00 | 0.00 | 0.00 | 57 | 1015.1 |
| 20260507154939 | 60 | 98 | 0.0 | 2.0 | 0.00 | 0.00 | 0.00 | 59 | 1015.1 |
| 20260507152939 | 60 | 35 | 4.0 | 9.0 | 0.00 | 0.00 | 0.00 | 57 | 1015.0 |
| 20260507150938 | 60 | 74 | 3.0 | 8.0 | 0.00 | 0.00 | 0.00 | 57 | 1015.0 |
| 20260507145939 | 60 | 43 | 2.0 | 6.0 | 0.00 | 0.00 | 0.00 | 59 | 1015.0 |
| 20260507143939 | 60 | 34 | 3.0 | 7.0 | 0.00 | 0.00 | 0.00 | 59 | 1015.0 |
| 20260507142939 | 60 | 55 | 2.0 | 7.0 | 0.00 | 0.00 | 0.00 | 58 | 1015.1 |
| 20260507141939 | 60 | 51 | 5.0 | 8.0 | 0.00 | 0.00 | 0.00 | 60 | 1015.1 |
| 20260507140938 | 60 | 58 | 3.0 | 6.0 | 0.00 | 0.00 | 0.00 | 61 | 1015.2 |
| 20260507135940 | 60 | 75 | 3.0 | 6.0 | 0.00 | 0.00 | 0.00 | 60 | 1015.3 |
| 20260507133939 | 60 | 39 | 3.0 | 6.0 | 0.00 | 0.00 | 0.00 | 61 | 1015.3 |
| 20260507132938 | 60 | 67 | 2.0 | 5.0 | 0.00 | 0.00 | 0.00 | 62 | 1015.2 |
| 20260507131941 | 60 | 62 | 4.0 | 7.0 | 0.00 | 0.00 | 0.00 | 63 | 1015.2 |
| 20260507130939 | 60 | 62 | 5.0 | 9.0 | 0.00 | 0.00 | 0.00 | 62 | 1015.3 |
| 20260507123939 | 60 | 51 | 3.0 | 6.0 | 0.00 | 0.00 | 0.00 | 64 | 1015.2 |
| 20260507121940 | 59 | 40 | 3.0 | 7.0 | 0.00 | 0.00 | 0.00 | 62 | 1015.1 |
| 20260507120939 | 59 | 343 | 3.0 | 8.0 | 0.00 | 0.00 | 0.00 | 64 | 1015.0 |
| 20260507115941 | 59 | 301 | 3.0 | 6.0 | 0.00 | 0.00 | 0.00 | 64 | 1015.1 |
| 20260507114940 | 58 | 326 | 3.0 | 6.0 | 0.00 | 0.00 | 0.00 | 64 | 1015.1 |
| 20260507113939 | 58 | 18 | 4.0 | 7.0 | 0.00 | 0.00 | 0.00 | 64 | 1015.1 |
| 20260507112939 | 58 | 48 | 4.0 | 8.0 | 0.00 | 0.00 | 0.00 | 65 | 1015.2 |
| 20260507111939 | 58 | 301 | 4.0 | 7.0 | 0.00 | 0.00 | 0.00 | 68 | 1015.2 |
| 20260507110939 | 58 | 305 | 4.0 | 6.0 | 0.00 | 0.00 | 0.00 | 65 | 1015.2 |
| 20260507105939 | 58 | 335 | 4.0 | 8.0 | 0.00 | 0.00 | 0.00 | 67 | 1015.3 |
| 20260507104939 | 58 | 47 | 5.0 | 8.0 | 0.00 | 0.00 | 0.00 | 64 | 1015.3 |
| 20260507103940 | 60 | 49 | 5.0 | 9.0 | 0.00 | 0.00 | 0.00 | 65 | 1015.1 |
| 20260507102939 | 60 | 80 | 4.0 | 9.0 | 0.00 | 0.00 | 0.00 | 65 | 1015.1 |
| 20260507101939 | 60 | 64 | 7.0 | 10.0 | 0.00 | 0.00 | 0.00 | 68 | 1015.1 |
| 20260507100939 | 59 | 52 | 6.0 | 12.0 | 0.00 | 0.00 | 0.00 | 66 | 1015.1 |
| 20260507094940 | 58 | 36 | 5.0 | 9.0 | 0.00 | 0.00 | 0.00 | 69 | 1015.1 |
| 20260507092940 | 58 | 37 | 5.0 | 9.0 | 0.00 | 0.00 | 0.00 | 74 | 1015.0 |
| 20260507091940 | 57 | 42 | 7.0 | 12.0 | 0.00 | 0.00 | 0.00 | 72 | 1015.0 |
| 20260507085940 | 57 | 38 | 6.0 | 9.0 | 0.00 | 0.00 | 0.00 | 72 | 1015.0 |
| 20260507084940 | 56 | 21 | 5.0 | 10.0 | 0.00 | 0.01 | 0.00 | 74 | 1015.0 |
| 20260507083939 | 56 | 358 | 4.0 | 7.0 | 0.00 | 0.01 | 0.00 | 76 | 1015.0 |
| 20260507081941 | 55 | 288 | 4.0 | 7.0 | 0.00 | 0.01 | 0.00 | 78 | 1014.9 |
| 20260507080940 | 54 | 280 | 4.0 | 7.0 | 0.00 | 0.01 | 0.00 | 80 | 1014.8 |
| 20260507075941 | 54 | 343 | 4.0 | 6.0 | 0.00 | 0.01 | 0.00 | 80 | 1014.7 |
| 20260507074941 | 53 | 29 | 4.0 | 7.0 | 0.00 | 0.01 | 0.00 | 81 | 1014.7 |
| 20260507073940 | 53 | 22 | 4.0 | 8.0 | 0.00 | 0.01 | 0.00 | 81 | 1014.6 |
| 20260507072940 | 52 | 29 | 5.0 | 9.0 | 0.00 | 0.01 | 0.00 | 83 | 1014.5 |
| 20260507071940 | 52 | 41 | 5.0 | 9.0 | 0.00 | 0.01 | 0.00 | 83 | 1014.5 |
| 20260507070941 | 51 | 15 | 4.0 | 7.0 | 0.00 | 0.01 | 0.00 | 84 | 1014.5 |
| 20260507065940 | 51 | 14 | 4.0 | 6.0 | 0.00 | 0.01 | 0.00 | 84 | 1014.5 |
| 20260507064939 | 51 | 31 | 5.0 | 11.0 | 0.00 | 0.01 | 0.00 | 85 | 1014.5 |
| 20260507063941 | 50 | 22 | 4.0 | 7.0 | 0.00 | 0.01 | 0.00 | 86 | 1014.5 |
| 20260507062940 | 50 | 328 | 4.0 | 7.0 | 0.00 | 0.01 | 0.00 | 87 | 1014.4 |
| 20260507061940 | 49 | 342 | 5.0 | 7.0 | 0.00 | 0.01 | 0.00 | 88 | 1014.4 |
| 20260507055940 | 48 | 328 | 4.0 | 7.0 | 0.00 | 0.01 | 0.00 | 89 | 1014.0 |
| 20260507054941 | 48 | 357 | 4.0 | 7.0 | 0.00 | 0.01 | 0.00 | 89 | 1014.0 |
| 20260507053940 | 48 | 3 | 4.0 | 7.0 | 0.00 | 0.01 | 0.00 | 89 | 1014.0 |
| 20260507052940 | 47 | 7 | 5.0 | 9.0 | 0.00 | 0.01 | 0.00 | 90 | 1013.9 |
| 20260507051940 | 47 | 4 | 4.0 | 7.0 | 0.00 | 0.01 | 0.00 | 91 | 1013.9 |
| 20260507050940 | 47 | 8 | 4.0 | 7.0 | 0.00 | 0.01 | 0.00 | 92 | 1013.8 |
| 20260507045941 | 47 | 341 | 4.0 | 6.0 | 0.00 | 0.01 | 0.00 | 93 | 1013.5 |
| 20260507043940 | 47 | 327 | 3.0 | 5.0 | 0.00 | 0.01 | 0.00 | 93 | 1013.5 |
| 20260507042941 | 47 | 344 | 3.0 | 5.0 | 0.00 | 0.02 | 0.00 | 93 | 1013.4 |
| 20260507041940 | 47 | 346 | 3.0 | 5.0 | 0.00 | 0.02 | 0.00 | 93 | 1013.4 |
| 20260507040940 | 47 | 305 | 3.0 | 5.0 | 0.00 | 0.02 | 0.00 | 93 | 1013.1 |
| 20260507035940 | 47 | 321 | 2.0 | 3.0 | 0.00 | 0.02 | 0.00 | 93 | 1013.0 |
| 20260507034940 | 47 | 311 | 2.0 | 3.0 | 0.00 | 0.02 | 0.00 | 93 | 1013.0 |
| 20260507032941 | 47 | 290 | 1.0 | 2.0 | 0.00 | 0.02 | 0.00 | 92 | 1012.9 |
| 20260507031941 | 47 | 291 | 1.0 | 3.0 | 0.00 | 0.02 | 0.00 | 92 | 1012.9 |
| 20260507030940 | 47 | 281 | 0.0 | 3.0 | 0.00 | 0.02 | 0.00 | 92 | 1012.9 |
| 20260507025941 | 47 | 288 | 0.0 | 1.0 | 0.00 | 0.02 | 0.00 | 92 | 1012.9 |
| 20260507024941 | 47 | 288 | 1.0 | 3.0 | 0.00 | 0.02 | 0.00 | 92 | 1012.9 |
| 20260507023940 | 48 | 282 | 1.0 | 3.0 | 0.00 | 0.02 | 0.00 | 91 | 1012.8 |
| 20260507022941 | 48 | 276 | 0.0 | 2.0 | 0.00 | 0.02 | 0.00 | 91 | 1012.6 |
| 20260507020941 | 48 | 288 | 2.0 | 4.0 | 0.00 | 0.02 | 0.00 | 90 | 1012.5 |
| 20260507014940 | 49 | 338 | 3.0 | 5.0 | 0.00 | 0.03 | 0.00 | 89 | 1012.4 |
| 20260507013941 | 49 | 326 | 4.0 | 6.0 | 0.00 | 0.03 | 0.00 | 89 | 1012.4 |
| 20260507012941 | 49 | 297 | 4.0 | 6.0 | 0.00 | 0.04 | 0.00 | 89 | 1012.4 |
| 20260507010941 | 49 | 268 | 2.0 | 3.0 | 0.00 | 0.05 | 0.00 | 88 | 1012.3 |
| 20260507005941 | 49 | 258 | 1.0 | 3.0 | 0.00 | 0.05 | 0.00 | 88 | 1012.2 |
| 20260507004940 | 49 | 256 | 2.0 | 4.0 | 0.00 | 0.06 | 0.00 | 88 | 1012.2 |
| 20260507002942 | 49 | 328 | 2.0 | 3.0 | 0.00 | 0.06 | 0.00 | 89 | 1012.0 |
| 20260507001941 | 49 | 303 | 3.0 | 4.0 | 0.00 | 0.06 | 0.00 | 89 | 1012.0 |
| 20260507000941 | 49 | 285 | 2.0 | 4.0 | 0.00 | 0.06 | 0.00 | 89 | 1011.9 |
| 20260506234942 | 49 | 273 | 1.0 | 3.0 | 0.00 | 0.06 | 0.00 | 89 | 1012.0 |
| 20260506233941 | 49 | 270 | 2.0 | 3.0 | 0.00 | 0.06 | 0.00 | 88 | 1011.9 |
| 20260506232941 | 49 | 259 | 2.0 | 3.0 | 0.00 | 0.06 | 0.00 | 88 | 1011.9 |
| 20260506231941 | 49 | 252 | 1.0 | 2.0 | 0.00 | 0.06 | 0.00 | 88 | 1011.9 |
| 20260506230940 | 49 | 265 | 1.0 | 2.0 | 0.00 | 0.06 | 0.00 | 89 | 1011.8 |
| 20260506225941 | 49 | 283 | 0.0 | 1.0 | 0.00 | 0.06 | 0.00 | 88 | 1011.8 |
| 20260506224941 | 49 | 285 | 1.0 | 3.0 | 0.00 | 0.06 | 0.00 | 88 | 1011.8 |
| 20260506223941 | 49 | 287 | 2.0 | 3.0 | 0.00 | 0.06 | 0.00 | 88 | 1011.7 |
| 20260506222941 | 49 | 298 | 2.0 | 4.0 | 0.00 | 0.06 | 0.00 | 88 | 1011.6 |
| 20260506221941 | 49 | 6 | 1.0 | 3.0 | 0.00 | 0.06 | 0.00 | 88 | 1011.6 |
| 20260506220941 | 49 | 6 | 1.0 | 3.0 | 0.00 | 0.06 | 0.00 | 87 | 1011.5 |
| 20260506215946 | 49 | 351 | 3.0 | 4.0 | 0.00 | 0.06 | 0.00 | 88 | 1011.4 |
| 20260506212942 | 50 | 293 | 4.0 | 5.0 | 0.00 | 0.06 | 0.06 | 87 | 1011.3 |
| 20260506211942 | 50 | 9 | 2.0 | 4.0 | 0.00 | 0.06 | 0.06 | 86 | 1011.3 |
| 20260506210942 | 50 | 13 | 2.0 | 4.0 | 0.00 | 0.06 | 0.06 | 84 | 1011.3 |
| 20260506205942 | 50 | 21 | 2.0 | 5.0 | 0.00 | 0.06 | 0.06 | 84 | 1011.3 |
| 20260506204941 | 50 | 19 | 2.0 | 4.0 | 0.00 | 0.06 | 0.06 | 84 | 1011.3 |
| 20260506203942 | 50 | 25 | 3.0 | 5.0 | 0.00 | 0.06 | 0.06 | 85 | 1011.2 |
| 20260506202942 | 50 | 23 | 2.0 | 5.0 | 0.00 | 0.06 | 0.06 | 85 | 1011.1 |
| 20260506201942 | 50 | 23 | 2.0 | 5.0 | 0.00 | 0.06 | 0.06 | 85 | 1011.1 |